Location: Breitenfeld
(46.8500°N, 15.6333°E)
Time: 06:30:38
(UTC+00:00)

Cosmos 2322 Rocket - Pass Details

Date: 09 April 2020
Orbit: 834 x 849 km, 71.0° (Epoch: 02 June)

Event Time Altitude Azimuth Distance (km) Brightness Sun altitude
Rises 23:19:44 0° 325° (NW) 3,401 6.0 -34.9°
Reaches altitude 10° 23:22:25 10° 316° (NW) 2,460 5.0 -34.9°
Enters shadow 23:24:15 19° 304° (NW) 1,891 4.2 -34.8°
